User: anonymous   Login
Location: Cuzcurrita-R�o Tir�n
(42.5415°N, 2.9642°W)
Time: 08:20:57
(UTC+00:00)
Language:

CSL-04 Rocket - Orbit

View from above orbital plane
View from above orbital plane
View from above satellite
View from above satellite

Ground track
Ground track

The orbit data is extracted from the following two-line orbital elements,

1 25732U 99025C   21101.89399600 -.00000016  00000-0  14189-4 0  9998
2 25732  98.9103 138.1767 0038397  80.1117  90.9321 14.17690568134102
Epoch (UTC): 11 April 2021 21:27:21
Eccentricity: 0.0038397
inclination: 98.9103°
perigee height: 805 km
apogee height: 861 km
right ascension of ascending node: 138.1767°
argument of perigee: 80.1117°
revolutions per day: 14.17690568
mean anomaly at epoch: 90.9321°
orbit number at epoch: 13410

The dashed part of the orbit path shows where the satellite is in the earth's shadow,  

DLR